| time (UTC) | temp F | wind direction | speed MPH | gust MPH | rain 1hr in | rain 24hr in | rain mn in | humidity % | barometer mb |
| 20260901110042 | 46 | 0 | 0.0 | 1.0 | 0.00 | 0.00 | 0.00 | 53 | 1008.8 |
| 20260901104557 | 45 | 0 | 0.0 | 0.0 | 0.00 | 0.00 | 0.00 | 52 | 1008.9 |
| 20260901103042 | 46 | 0 | 0.0 | 2.0 | 0.00 | 0.00 | 0.00 | 51 | 1009.0 |
| 20260901101542 | 48 | 0 | 0.0 | 3.0 | 0.00 | 0.00 | 0.00 | 49 | 1009.1 |
| 20260901094542 | 47 | 340 | 0.0 | 2.0 | 0.00 | 0.00 | 0.00 | 49 | 1009.2 |
| 20260901093102 | 48 | 0 | 0.0 | 3.0 | 0.00 | 0.00 | 0.00 | 47 | 1009.3 |
| 20260901091548 | 49 | 0 | 0.0 | 1.0 | 0.00 | 0.00 | 0.00 | 46 | 1009.4 |
| 20260901090046 | 48 | 0 | 0.0 | 1.0 | 0.00 | 0.00 | 0.00 | 48 | 1009.2 |
| 20260901084542 | 50 | 0 | 0.0 | 0.0 | 0.00 | 0.00 | 0.00 | 42 | 1009.0 |
| 20260901083051 | 51 | 0 | 0.0 | 1.0 | 0.00 | 0.00 | 0.00 | 43 | 1009.1 |
| 20260901081549 | 51 | 0 | 0.0 | 1.0 | 0.00 | 0.00 | 0.00 | 42 | 1009.0 |
| 20260901080051 | 52 | 0 | 0.0 | 1.0 | 0.00 | 0.00 | 0.00 | 43 | 1009.2 |
| 20260901074549 | 51 | 0 | 0.0 | 0.0 | 0.00 | 0.00 | 0.00 | 40 | 1009.3 |
| 20260901073048 | 52 | 62 | 0.0 | 1.0 | 0.00 | 0.00 | 0.00 | 40 | 1009.0 |
| 20260901071543 | 52 | 0 | 0.0 | 1.0 | 0.00 | 0.00 | 0.00 | 39 | 1009.1 |
| 20260901070056 | 55 | 0 | 0.0 | 1.0 | 0.00 | 0.00 | 0.00 | 35 | 1009.1 |
| 20260901064547 | 55 | 0 | 0.0 | 0.0 | 0.00 | 0.00 | 0.00 | 36 | 1009.3 |
| 20260901063042 | 55 | 0 | 0.0 | 0.0 | 0.00 | 0.00 | 0.00 | 37 | 1009.3 |
| 20260901061552 | 55 | 0 | 0.0 | 0.0 | 0.00 | 0.00 | 0.00 | 35 | 1009.2 |
| 20260901060045 | 56 | 0 | 0.0 | 1.0 | 0.00 | 0.00 | 0.00 | 35 | 1009.3 |
| 20260901054551 | 58 | 0 | 0.0 | 0.0 | 0.00 | 0.00 | 0.00 | 33 | 1009.2 |
| 20260901053103 | 58 | 0 | 0.0 | 1.0 | 0.00 | 0.00 | 0.00 | 32 | 1009.3 |
| 20260901051546 | 59 | 0 | 0.0 | 2.0 | 0.00 | 0.00 | 0.00 | 31 | 1009.2 |
| 20260901050042 | 60 | 0 | 0.0 | 0.0 | 0.00 | 0.00 | 0.00 | 31 | 1009.4 |
| 20260901044607 | 62 | 0 | 0.0 | 1.0 | 0.00 | 0.00 | 0.00 | 30 | 1009.4 |
| 20260901043049 | 62 | 0 | 0.0 | 1.0 | 0.00 | 0.00 | 0.00 | 31 | 1009.5 |
| 20260901041547 | 63 | 0 | 0.0 | 0.0 | 0.00 | 0.00 | 0.00 | 30 | 1009.5 |
| 20260901040044 | 65 | 0 | 0.0 | 2.0 | 0.00 | 0.00 | 0.00 | 26 | 1009.4 |
| 20260901034541 | 66 | 0 | 0.0 | 1.0 | 0.00 | 0.00 | 0.00 | 24 | 1009.4 |
| 20260901033048 | 67 | 0 | 0.0 | 0.0 | 0.00 | 0.00 | 0.00 | 24 | 1009.3 |
| 20260901031550 | 68 | 0 | 0.0 | 0.0 | 0.00 | 0.00 | 0.00 | 24 | 1009.4 |
| 20260901030050 | 69 | 22 | 1.0 | 1.0 | 0.00 | 0.00 | 0.00 | 21 | 1009.3 |
| 20260901024551 | 70 | 0 | 0.0 | 1.0 | 0.00 | 0.00 | 0.00 | 20 | 1009.2 |
| 20260901023048 | 73 | 0 | 0.0 | 1.0 | 0.00 | 0.00 | 0.00 | 18 | 1009.2 |
| 20260901021547 | 74 | 0 | 0.0 | 0.0 | 0.00 | 0.00 | 0.00 | 18 | 1009.2 |
| 20260901020048 | 75 | 0 | 0.0 | 1.0 | 0.00 | 0.00 | 0.00 | 17 | 1009.3 |
| 20260901014545 | 77 | 323 | 1.0 | 4.0 | 0.00 | 0.00 | 0.00 | 16 | 1009.4 |
| 20260901013050 | 78 | 335 | 2.0 | 6.0 | 0.00 | 0.00 | 0.00 | 16 | 1009.4 |
| 20260901011551 | 79 | 255 | 3.0 | 6.0 | 0.00 | 0.00 | 0.00 | 14 | 1009.4 |
| 20260901010045 | 80 | 276 | 4.0 | 7.0 | 0.00 | 0.00 | 0.00 | 14 | 1009.5 |
| 20260901004547 | 82 | 315 | 1.0 | 7.0 | 0.00 | 0.00 | 0.00 | 13 | 1009.5 |
| 20260901003052 | 82 | 307 | 0.0 | 7.0 | 0.00 | 0.00 | 0.00 | 12 | 1009.7 |
| 20260901001550 | 82 | 282 | 2.0 | 7.0 | 0.00 | 0.00 | 0.00 | 12 | 1009.7 |
| 20260901000046 | 82 | 189 | 3.0 | 9.0 | 0.00 | 0.00 | 0.00 | 11 | 1009.8 |
| 20260831234543 | 83 | 224 | 2.0 | 7.0 | 0.00 | 0.00 | 0.00 | 10 | 1009.9 |
| 20260831233049 | 83 | 132 | 5.0 | 9.0 | 0.00 | 0.00 | 0.00 | 11 | 1010.0 |
| 20260831231549 | 82 | 311 | 3.0 | 8.0 | 0.00 | 0.00 | 0.00 | 10 | 1010.3 |
| 20260831230055 | 83 | 296 | 1.0 | 11.0 | 0.00 | 0.00 | 0.00 | 10 | 1010.5 |
| 20260831224549 | 83 | 284 | 3.0 | 6.0 | 0.00 | 0.00 | 0.00 | 9 | 1010.6 |
| 20260831223044 | 83 | 319 | 2.0 | 7.0 | 0.00 | 0.00 | 0.00 | 8 | 1010.8 |
| 20260831221551 | 83 | 298 | 3.0 | 6.0 | 0.00 | 0.00 | 0.00 | 8 | 1010.9 |
| 20260831220048 | 83 | 0 | 2.0 | 6.0 | 0.00 | 0.00 | 0.00 | 9 | 1011.2 |
| 20260831214619 | 82 | 213 | 1.0 | 6.0 | 0.00 | 0.00 | 0.00 | 15 | 1011.4 |
| 20260831213045 | 82 | 141 | 3.0 | 9.0 | 0.00 | 0.00 | 0.00 | 17 | 1011.6 |
| 20260831211553 | 81 | 353 | 0.0 | 6.0 | 0.00 | 0.00 | 0.00 | 15 | 1011.7 |
| 20260831210049 | 80 | 340 | 1.0 | 9.0 | 0.00 | 0.00 | 0.00 | 16 | 1011.9 |
| 20260831204555 | 81 | 139 | 1.0 | 7.0 | 0.00 | 0.00 | 0.00 | 17 | 1012.1 |
| 20260831203047 | 79 | 147 | 4.0 | 15.0 | 0.00 | 0.00 | 0.00 | 20 | 1012.2 |
| 20260831201542 | 79 | 136 | 2.0 | 7.0 | 0.00 | 0.00 | 0.00 | 19 | 1012.3 |
| 20260831200051 | 78 | 135 | 3.0 | 9.0 | 0.00 | 0.00 | 0.00 | 19 | 1012.7 |
| 20260831194549 | 77 | 146 | 3.0 | 6.0 | 0.00 | 0.00 | 0.00 | 20 | 1012.9 |
| 20260831193042 | 76 | 148 | 3.0 | 6.0 | 0.00 | 0.00 | 0.00 | 21 | 1013.1 |
| 20260831191551 | 76 | 151 | 1.0 | 8.0 | 0.00 | 0.00 | 0.00 | 22 | 1013.2 |
| 20260831190110 | 75 | 156 | 1.0 | 5.0 | 0.00 | 0.00 | 0.00 | 25 | 1013.4 |
| 20260831184543 | 73 | 165 | 3.0 | 6.0 | 0.00 | 0.00 | 0.00 | 23 | 1013.7 |
| 20260831183058 | 71 | 0 | 2.0 | 5.0 | 0.00 | 0.00 | 0.00 | 30 | 1013.9 |
| 20260831181553 | 69 | 128 | 2.0 | 4.0 | 0.00 | 0.00 | 0.00 | 32 | 1014.2 |
| 20260831180046 | 68 | 148 | 1.0 | 5.0 | 0.00 | 0.00 | 0.00 | 34 | 1014.3 |
| 20260831174541 | 66 | 132 | 2.0 | 4.0 | 0.00 | 0.00 | 0.00 | 35 | 1014.5 |
| 20260831173048 | 65 | 102 | 1.0 | 4.0 | 0.00 | 0.00 | 0.00 | 37 | 1014.5 |
| 20260831171544 | 61 | 111 | 0.0 | 3.0 | 0.00 | 0.00 | 0.00 | 41 | 1014.6 |
| 20260831170041 | 60 | 155 | 1.0 | 3.0 | 0.00 | 0.00 | 0.00 | 42 | 1014.7 |
| 20260831164601 | 57 | 131 | 1.0 | 3.0 | 0.00 | 0.00 | 0.00 | 47 | 1014.8 |
| 20260831163044 | 55 | 109 | 0.0 | 3.0 | 0.00 | 0.00 | 0.00 | 49 | 1015.0 |
| 20260831161551 | 53 | 0 | 2.0 | 3.0 | 0.00 | 0.00 | 0.00 | 51 | 1014.9 |
| 20260831160049 | 51 | 106 | 1.0 | 3.0 | 0.00 | 0.00 | 0.00 | 54 | 1015.1 |
| 20260831154619 | 49 | 110 | 0.0 | 2.0 | 0.00 | 0.00 | 0.00 | 58 | 1015.3 |
| 20260831153044 | 47 | 0 | 0.0 | 2.0 | 0.00 | 0.00 | 0.00 | 61 | 1015.3 |
| 20260831151550 | 45 | 151 | 1.0 | 3.0 | 0.00 | 0.00 | 0.00 | 62 | 1015.3 |
| 20260831150049 | 45 | 131 | 1.0 | 2.0 | 0.00 | 0.00 | 0.00 | 65 | 1015.4 |
| 20260831144545 | 43 | 0 | 0.0 | 2.0 | 0.00 | 0.00 | 0.00 | 67 | 1015.5 |
| 20260831143046 | 43 | 0 | 0.0 | 0.0 | 0.00 | 0.00 | 0.00 | 65 | 1015.3 |
| 20260831141553 | 41 | 0 | 0.0 | 0.0 | 0.00 | 0.00 | 0.00 | 69 | 1015.3 |
| 20260831140047 | 37 | 0 | 0.0 | 0.0 | 0.00 | 0.00 | 0.00 | 73 | 1015.2 |
| 20260831134548 | 36 | 0 | 0.0 | 1.0 | 0.00 | 0.00 | 0.00 | 74 | 1015.1 |
| 20260831133056 | 36 | 0 | 0.0 | 1.0 | 0.00 | 0.00 | 0.00 | 76 | 1015.1 |
| 20260831131554 | 36 | 0 | 0.0 | 1.0 | 0.00 | 0.00 | 0.00 | 71 | 1015.0 |
| 20260831130055 | 36 | 0 | 0.0 | 1.0 | 0.00 | 0.00 | 0.00 | 74 | 1014.9 |
| 20260831124549 | 36 | 0 | 0.0 | 1.0 | 0.00 | 0.00 | 0.00 | 72 | 1014.8 |
| 20260831123052 | 38 | 0 | 0.0 | 1.0 | 0.00 | 0.00 | 0.00 | 67 | 1014.9 |
| 20260831121550 | 38 | 0 | 0.0 | 0.0 | 0.00 | 0.00 | 0.00 | 69 | 1014.7 |
| 20260831120058 | 38 | 0 | 0.0 | 0.0 | 0.00 | 0.00 | 0.00 | 70 | 1014.7 |
| 20260831114545 | 38 | 0 | 0.0 | 0.0 | 0.00 | 0.00 | 0.00 | 70 | 1015.0 |
| 20260831113109 | 39 | 0 | 0.0 | 1.0 | 0.00 | 0.00 | 0.00 | 70 | 1014.9 |
| 20260831111548 | 39 | 0 | 0.0 | 0.0 | 0.00 | 0.00 | 0.00 | 68 | 1014.9 |